星链-5610 (STARLINK-5610 )

导读

STARLINK-5610是美国SpaceX公司星链(Starlink)项目的第二代低轨卫星互联网卫星,于2023年7月7日发射升空,属于星链大规模组网中的一颗卫星。星链计划旨在通过近地轨道卫星组网,为全球提供高速低延迟宽带服务,该卫星服役于低地球轨道,配备相控阵天线与氪离子推进系统,支持自主轨道机动和避碰,助力星链完成全球覆盖,为偏远地区、灾难场景等提供互联网接入服务。

基本信息
目录编号:
57244
目录名称:
STARLINK-5610
国际标识:
2023-094AC
轨道中心:
EARTH
卫星名称:
星链-5610
卫星全名:
星链-5610 (STARLINK-5610 )
卫星状态:
在轨 (已飞行1074 天)
发射日期:
2023-07-07 UTC
国别 :
美国 (US)
星等 :
--
轨道信息
数据来源 国际轨道数据 AOE轨道数据
星历时间 2026-06-15T02:36:13+0800
7小时前
查看轨道信息
2026-06-12T04:00:00+0800
3天前
查看轨道信息
半长轴 6861.193km 6861.204km
偏心率 0.0001092 0.0001577
轨道倾角 43.000° 42.995°
近地点辐角 284.237° 349.602°
升交点赤经 191.119° 207.738°
平近点角 75.836° 13.597°
近地点 482.306km 481.984km
远地点 483.806km 484.15km
周期 94.267分钟 94.267分钟
每日圈数 15.275779 15.275743
详细信息
固有亮度:
5
最大亮度:
2.4
卫星平台:
Starlink v1.5
覆盖范围:
全球
运营商:
太空探索技术公司
运营商所在国:
美国
制造商(研发单位):
太空探索技术公司
制造商所在国:
美国
使用方式:
暂无
卫星简介
星链(Starlink)计划是由太空探索技术公司(SpaceX)提出的一个巨型低轨卫星互联网星座项目,计划在2019年至2024年间在太空搭建由约1.2万颗卫星组成的“星链”网络,其中1584颗将部署在地球上空550千米处的近地轨道,并从2020年开始工作。该卫星仍在工作。
2D轨道图
3D轨道图
轨道高度分析图
轨道倾角分析图
轨道综合分析图
查看轨道综合分析图